FW8840 Weather Reports


Display with metric or nautical units.
time (UTC)temp
F
wind
direction
speed
MPH
gust
MPH
rain 1hr
in
rain 24hr
in
rain mn
in
humidity
%
barometer
mb
20260507171525 65 90 3.0 4.0 0.00 0.00 0.00 79 1016.8
20260507170525 65 270 0.0 1.0 0.00 0.00 0.00 79 1017.2
20260507165525 66 270 0.0 1.0 0.00 0.00 0.00 79 1017.4
20260507164546 67 270 0.0 1.0 0.00 0.00 0.00 77 1017.5
20260507163525 67 270 0.0 1.0 0.00 0.00 0.00 74 1017.3
20260507162524 67 270 0.0 1.0 0.00 0.00 0.00 72 1017.2
20260507161525 68 270 1.0 2.0 0.00 0.00 0.00 71 1017.4
20260507160525 67 270 1.0 2.0 0.00 0.00 0.00 71 1017.4
20260507155525 67 270 1.0 3.0 0.00 0.00 0.00 71 1017.5
20260507154525 67 270 1.0 3.0 0.00 0.00 0.00 72 1017.3
20260507153545 67 270 1.0 3.0 0.00 0.00 0.00 69 1017.7
20260507152524 67 270 0.0 4.0 0.00 0.00 0.00 67 1017.7
20260507151524 67 270 1.0 4.0 0.00 0.00 0.00 68 1017.7
20260507150544 68 280 2.0 5.0 0.00 0.00 0.00 68 1017.7
20260507145524 68 283 3.0 7.0 0.00 0.00 0.00 69 1017.7
20260507144545 69 268 2.0 4.0 0.00 0.00 0.00 70 1017.6
20260507143524 70 292 3.0 7.0 0.00 0.00 0.00 69 1017.6
20260507142544 71 294 4.0 7.0 0.00 0.00 0.00 67 1017.7
20260507141524 72 288 4.0 6.0 0.00 0.00 0.00 68 1017.5
20260507140524 74 265 3.0 7.0 0.00 0.00 0.00 65 1017.4
20260507135524 74 299 3.0 6.0 0.00 0.00 0.00 61 1017.3
20260507134524 73 288 2.0 4.0 0.00 0.00 0.00 61 1017.3
20260507133524 71 259 1.0 4.0 0.00 0.00 0.00 64 1017.2
20260507132524 70 68 1.0 2.0 0.00 0.00 0.00 67 1017.3
20260507131524 69 45 1.0 2.0 0.00 0.00 0.00 67 1017.5
20260507130524 69 45 1.0 3.0 0.00 0.00 0.00 68 1017.7
20260507125524 69 45 1.0 4.0 0.00 0.00 0.00 70 1017.3
20260507124525 70 45 2.0 4.0 0.00 0.00 0.00 70 1017.6
20260507123524 70 45 2.0 4.0 0.00 0.00 0.00 68 1018.1
20260507122523 69 6 3.0 4.0 0.00 0.00 0.00 70 1018.3
20260507121523 67 316 1.0 3.0 0.00 0.00 0.00 72 1018.6
20260507120524 66 338 1.0 2.0 0.00 0.00 0.00 75 1018.8
20260507115523 65 30 1.0 2.0 0.00 0.00 0.00 80 1018.8
20260507114523 65 45 1.0 2.0 0.00 0.00 0.00 82 1018.8
20260507113524 66 338 1.0 4.0 0.00 0.00 0.00 81 1019.1
20260507112523 66 337 2.0 4.0 0.00 0.00 0.00 78 1019.2
20260507111523 67 292 1.0 4.0 0.00 0.00 0.00 76 1019.2
20260507110523 67 315 1.0 4.0 0.00 0.00 0.00 73 1019.2
20260507105523 67 338 2.0 4.0 0.00 0.00 0.00 72 1019.2
20260507104543 68 338 2.0 4.0 0.00 0.00 0.00 69 1019.1
20260507103543 68 310 1.0 3.0 0.00 0.00 0.00 64 1019.1
20260507102523 69 276 3.0 6.0 0.00 0.00 0.00 63 1019.2
20260507101603 69 292 2.0 4.0 0.00 0.00 0.00 64 1019.1
20260507100522 69 284 4.0 6.0 0.00 0.00 0.00 66 1019.2
20260507095522 69 280 4.0 6.0 0.00 0.00 0.00 62 1019.0
20260507094522 69 270 5.0 7.0 0.00 0.00 0.00 61 1018.7
20260507093543 70 286 5.0 7.0 0.00 0.00 0.00 62 1018.6
20260507092522 70 302 3.0 6.0 0.00 0.00 0.00 62 1018.3
20260507091522 70 273 3.0 6.0 0.00 0.00 0.00 63 1018.2
20260507090522 70 296 4.0 7.0 0.00 0.00 0.00 60 1018.1
20260507085522 70 310 4.0 5.0 0.00 0.00 0.00 59 1018.0
20260507084522 71 301 3.0 6.0 0.00 0.00 0.00 59 1017.9
20260507083523 71 316 3.0 5.0 0.00 0.00 0.00 59 1017.8
20260507082522 71 331 2.0 4.0 0.00 0.00 0.00 59 1017.7
20260507081522 71 279 3.0 6.0 0.00 0.00 0.00 58 1017.6
20260507080522 70 263 3.0 4.0 0.00 0.00 0.00 59 1017.6
20260507075522 69 273 2.0 4.0 0.00 0.00 0.00 60 1017.4
20260507074522 70 272 3.0 4.0 0.00 0.00 0.00 62 1017.4
20260507073522 70 309 2.0 4.0 0.00 0.00 0.00 61 1017.3
20260507072522 69 304 3.0 4.0 0.00 0.00 0.00 61 1017.2
20260507071522 69 345 2.0 4.0 0.00 0.00 0.00 63 1017.2
20260507070522 68 324 3.0 6.0 0.00 0.00 0.00 68 1017.2
20260507065522 68 297 3.0 4.0 0.00 0.00 0.00 68 1017.3
20260507064542 69 333 4.0 6.0 0.00 0.00 0.00 66 1017.4
20260507063522 70 295 3.0 5.0 0.00 0.00 0.00 65 1017.4
20260507062522 70 334 2.0 4.0 0.00 0.00 0.00 62 1017.3
20260507061602 70 311 1.0 4.0 0.00 0.00 0.00 65 1017.1
20260507060533 70 45 1.0 2.0 0.00 0.00 0.00 63 1017.1
20260507055521 69 45 0.0 2.0 0.00 0.00 0.00 68 1016.9
20260507054602 68 45 1.0 2.0 0.00 0.00 0.00 73 1017.1
20260507053622 66 45 0.0 2.0 0.00 0.00 0.00 77 1017.0
20260507052521 65 45 1.0 2.0 0.00 0.00 0.00 83 1016.8
20260507051521 63 56 1.0 3.0 0.00 0.00 0.00 83 1016.8
20260507050521 61 180 1.0 1.0 0.00 0.00 0.00 88 1016.8
20260507045521 58 180 2.0 4.0 0.00 0.00 0.00 91 1016.8
20260507044522 56 180 2.0 4.0 0.00 0.00 0.00 94 1016.8
20260507043522 55 184 3.0 4.0 0.00 0.00 0.00 95 1016.7
20260507042521 53 202 3.0 4.0 0.00 0.00 0.00 96 1016.7
20260507041521 53 202 2.0 5.0 0.00 0.00 0.00 96 1016.6
20260507040521 52 202 2.0 4.0 0.00 0.00 0.00 96 1016.6
20260507035521 52 202 1.0 2.0 0.00 0.00 0.00 96 1016.4
20260507034521 53 202 2.0 4.0 0.00 0.00 0.00 96 1016.4
20260507033521 53 202 3.0 4.0 0.00 0.00 0.00 96 1016.3
20260507032520 53 202 3.0 4.0 0.00 0.00 0.00 96 1016.3
20260507031520 53 202 3.0 4.0 0.00 0.00 0.00 96 1016.3
20260507030520 53 193 3.0 4.0 0.00 0.00 0.00 96 1016.2
20260507025520 53 180 0.0 1.0 0.00 0.00 0.00 96 1016.1
20260507024520 53 180 2.0 4.0 0.00 0.00 0.00 96 1016.0
20260507023542 53 180 2.0 4.0 0.00 0.00 0.00 96 1015.9
20260507022520 53 180 2.0 3.0 0.00 0.00 0.00 95 1015.9
20260507021520 54 180 3.0 4.0 0.00 0.00 0.00 96 1016.1
20260507020520 54 225 5.0 6.0 0.00 0.00 0.00 96 1015.9
20260507015520 54 209 3.0 5.0 0.00 0.00 0.00 96 1015.8
20260507014520 53 196 4.0 4.0 0.00 0.00 0.00 96 1015.9
20260507013520 53 180 1.0 2.0 0.00 0.00 0.00 95 1015.8
20260507012519 53 202 3.0 4.0 0.00 0.00 0.00 95 1015.8
20260507011541 54 202 1.0 4.0 0.00 0.00 0.00 94 1015.6
20260507010519 54 200 4.0 6.0 0.00 0.00 0.00 95 1015.6
20260507005520 54 202 5.0 6.0 0.00 0.00 0.00 95 1015.6
20260507004519 55 202 3.0 5.0 0.00 0.00 0.00 95 1015.4
20260507003519 55 202 4.0 5.0 0.00 0.00 0.00 95 1015.4
20260507002520 55 202 5.0 7.0 0.00 0.00 0.00 95 1015.4
20260507001539 54 202 2.0 4.0 0.00 0.00 0.00 95 1015.4
20260507000519 54 202 3.0 4.0 0.00 0.00 0.00 95 1015.5
20260506235519 54 202 2.0 3.0 0.00 0.00 0.00 94 1015.7
20260506234519 55 202 1.0 2.0 0.00 0.00 0.00 94 1015.7
20260506233519 55 202 1.0 4.0 0.00 0.00 0.00 94 1015.7
20260506232518 55 202 3.0 4.0 0.00 0.00 0.00 94 1015.7
20260506231518 54 202 2.0 4.0 0.00 0.00 0.00 94 1015.7
20260506230519 55 202 1.0 2.0 0.00 0.00 0.00 94 1015.7
20260506225538 55 202 3.0 5.0 0.00 0.00 0.00 94 1015.7
20260506224519 55 202 5.0 7.0 0.00 0.00 0.00 93 1015.7
20260506223519 55 202 3.0 5.0 0.00 0.00 0.00 93 1015.7
20260506222530 55 200 4.0 6.0 0.00 0.00 0.00 92 1015.8
20260506221530 55 217 5.0 7.0 0.00 0.00 0.00 92 1015.7
20260506220530 56 202 3.0 4.0 0.00 0.00 0.00 91 1015.9
20260506215530 56 201 5.0 6.0 0.00 0.00 0.00 90 1015.9
20260506214550 56 202 4.0 6.0 0.00 0.00 0.00 89 1015.9
20260506213530 56 202 4.0 6.0 0.00 0.00 0.00 88 1015.9
20260506212530 57 216 4.0 4.0 0.00 0.00 0.00 88 1015.9
20260506211530 57 202 4.0 5.0 0.00 0.00 0.00 88 1015.9
20260506210530 57 180 4.0 5.0 0.00 0.00 0.00 88 1016.1
20260506205530 57 202 4.0 6.0 0.00 0.00 0.00 88 1015.9
20260506204529 58 214 4.0 6.0 0.00 0.00 0.00 87 1015.9
20260506203529 58 202 5.0 6.0 0.00 0.00 0.00 89 1015.7
20260506202529 58 202 5.0 7.0 0.00 0.00 0.00 90 1015.8
20260506201529 59 202 4.0 4.0 0.00 0.00 0.00 90 1015.7
20260506200529 59 202 2.0 4.0 0.00 0.00 0.00 90 1015.6
20260506195529 59 214 3.0 4.0 0.00 0.00 0.00 90 1015.4
20260506194529 59 202 2.0 4.0 0.00 0.00 0.00 90 1015.3
20260506193529 60 202 2.0 4.0 0.00 0.00 0.00 90 1015.2
20260506192549 60 202 4.0 6.0 0.00 0.00 0.00 90 1015.2
20260506191529 60 198 5.0 7.0 0.00 0.00 0.00 91 1015.1
20260506190529 60 207 5.0 7.0 0.00 0.00 0.00 91 1015.1
20260506185529 60 199 5.0 7.0 0.00 0.00 0.00 90 1015.1
20260506184529 60 213 5.0 7.0 0.00 0.00 0.00 91 1015.0
20260506183529 60 218 5.0 7.0 0.00 0.00 0.00 90 1014.8
20260506182529 60 207 6.0 8.0 0.00 0.00 0.00 90 1014.8
20260506181528 61 217 5.0 7.0 0.00 0.00 0.00 89 1014.6
20260506180548 61 193 5.0 7.0 0.00 0.00 0.00 89 1014.4
20260506175529 61 186 4.0 6.0 0.00 0.00 0.00 89 1014.3
20260506174529 62 191 6.0 9.0 0.00 0.00 0.00 89 1014.2
20260506173528 62 185 6.0 9.0 0.00 0.00 0.00 88 1014.2
20260506172528 63 182 7.0 9.0 0.00 0.00 0.00 87 1014.2